LVX452 TGPY-TNCM

Flight info

Callsign LVX452
Flight time N/A
Altitude 9000
Route DCT DUSAL DCT RESAS DCT UMENU DCT NUKAK DCT BIMBO DCT ZPATA DCT
Aircraft RV10/L-SDGRY/S

Departure

Time 2026-04-22 14:50
Airport Maurice Bishop International Airport (TGPY)

Arrival

Time N/A
Airport Princess Juliana International Airport (TNCM)
Time Latitude Longitude Altitude Speed Heading
2026-04-22 14:31 12.00626 -61.78765 41 ft 0 kts 114°
2026-04-22 14:43 12.00625 -61.78763 41 ft 2 kts 110°
2026-04-22 14:43 12.00596 -61.78732 40 ft 8 kts 148°
2026-04-22 14:43 12.00573 -61.78681 39 ft 8 kts 93°
2026-04-22 14:43 12.00568 -61.78623 39 ft 9 kts 109°
2026-04-22 14:44 12.00514 -61.78596 38 ft 10 kts 183°
2026-04-22 14:44 12.00475 -61.78597 37 ft 6 kts 180°
2026-04-22 14:44 12.00415 -61.78579 37 ft 13 kts 115°
2026-04-22 14:44 12.00407 -61.78474 36 ft 17 kts 91°
2026-04-22 14:45 12.00405 -61.78368 34 ft 17 kts 91°
2026-04-22 14:45 12.00407 -61.78218 30 ft 24 kts 92°
2026-04-22 14:45 12.00407 -61.78075 28 ft 21 kts 88°
2026-04-22 14:45 12.00403 -61.77906 30 ft 26 kts 92°
2026-04-22 14:46 12.00404 -61.77751 34 ft 15 kts 92°
2026-04-22 14:46 12.00401 -61.77639 38 ft 17 kts 90°
2026-04-22 14:46 12.00401 -61.77507 43 ft 19 kts 89°
2026-04-22 14:46 12.00393 -61.77397 47 ft 11 kts 100°
2026-04-22 14:47 12.00401 -61.77396 47 ft 3 kts 276°
2026-04-22 14:47 12.00401 -61.77398 47 ft 0 kts 269°
2026-04-22 14:49 12.00400 -61.77550 42 ft 57 kts 270°
2026-04-22 14:49 12.00407 -61.78072 148 ft 82 kts 269°
2026-04-22 14:49 12.00426 -61.78645 400 ft 83 kts 268°
2026-04-22 14:49 12.00424 -61.79286 575 ft 105 kts 267°
2026-04-22 14:50 12.00384 -61.80105 694 ft 122 kts 266°
2026-04-22 14:50 12.00356 -61.81014 819 ft 133 kts 269°
2026-04-22 14:50 12.00339 -61.81973 936 ft 139 kts 275°
2026-04-22 14:50 12.00815 -61.82800 1034 ft 138 kts 332°
2026-04-22 14:51 12.01736 -61.82985 1148 ft 138 kts 11°
2026-04-22 14:51 12.02597 -61.82577 1280 ft 138 kts 36°
2026-04-22 14:51 12.03404 -61.82025 1404 ft 140 kts 36°
2026-04-22 14:51 12.04234 -61.81498 1532 ft 141 kts 33°
2026-04-22 14:52 12.05076 -61.80981 1655 ft 141 kts 32°
2026-04-22 14:52 12.05920 -61.80466 1783 ft 141 kts 32°
2026-04-22 14:52 12.06761 -61.79954 1905 ft 141 kts 33°
2026-04-22 14:52 12.07598 -61.79445 2022 ft 139 kts 33°
2026-04-22 14:53 12.08435 -61.78936 2145 ft 139 kts 33°
2026-04-22 14:53 12.09265 -61.78430 2263 ft 138 kts 33°
2026-04-22 14:53 12.09809 -61.78100 2346 ft 137 kts 34°
2026-04-22 14:53 12.10912 -61.77428 2512 ft 140 kts 34°
2026-04-22 14:54 12.11467 -61.77090 2593 ft 140 kts 33°
2026-04-22 14:54 12.12316 -61.76573 2712 ft 142 kts 33°
2026-04-22 14:54 12.13182 -61.76047 2837 ft 147 kts 33°
2026-04-22 14:54 12.14360 -61.75330 3001 ft 151 kts 32°
2026-04-22 14:55 12.14974 -61.74956 3083 ft 152 kts 32°
2026-04-22 14:55 12.15891 -61.74398 3210 ft 154 kts 33°
2026-04-22 14:55 12.16799 -61.73845 3329 ft 154 kts 32°
2026-04-22 14:55 12.17719 -61.73285 3448 ft 153 kts 32°
2026-04-22 14:56 12.18633 -61.72729 3562 ft 152 kts 32°
2026-04-22 14:56 12.19553 -61.72169 3684 ft 154 kts 33°
2026-04-22 14:56 12.20477 -61.71605 3806 ft 156 kts 32°
2026-04-22 14:56 12.21409 -61.71038 3928 ft 156 kts 33°
2026-04-22 14:57 12.22342 -61.70470 4048 ft 156 kts 32°
2026-04-22 14:57 12.23274 -61.69902 4168 ft 156 kts 32°
2026-04-22 14:57 12.24205 -61.69335 4289 ft 156 kts 32°
2026-04-22 14:57 12.25138 -61.68766 4417 ft 156 kts 32°
2026-04-22 14:58 12.26074 -61.68196 4532 ft 157 kts 32°
2026-04-22 14:58 12.27012 -61.67624 4655 ft 157 kts 32°
2026-04-22 14:58 12.27951 -61.67051 4776 ft 157 kts 32°
2026-04-22 14:58 12.28890 -61.66479 4896 ft 157 kts 32°
2026-04-22 14:59 12.29827 -61.65908 5015 ft 157 kts 32°
2026-04-22 14:59 12.30765 -61.65336 5137 ft 157 kts 32°
2026-04-22 14:59 12.31704 -61.64763 5251 ft 157 kts 31°
2026-04-22 14:59 12.32648 -61.64187 5378 ft 158 kts 31°
2026-04-22 15:00 12.33594 -61.63610 5498 ft 158 kts 31°
2026-04-22 15:00 12.34530 -61.63039 5618 ft 159 kts 31°
2026-04-22 15:00 12.35476 -61.62462 5737 ft 159 kts 31°
2026-04-22 15:00 12.36424 -61.61884 5864 ft 159 kts 31°
2026-04-22 15:01 12.37372 -61.61306 5986 ft 159 kts 31°
2026-04-22 15:01 12.38321 -61.60727 6111 ft 159 kts 31°
2026-04-22 15:01 12.39272 -61.60147 6231 ft 159 kts 30°
2026-04-22 15:01 12.40224 -61.59566 6355 ft 159 kts 30°
2026-04-22 15:02 12.41177 -61.58984 6472 ft 160 kts 30°
2026-04-22 15:02 12.42133 -61.58400 6588 ft 160 kts 30°
2026-04-22 15:02 12.43090 -61.57817 6709 ft 160 kts 30°
2026-04-22 15:02 12.44047 -61.57232 6824 ft 160 kts 30°
2026-04-22 15:03 12.45007 -61.56646 6938 ft 161 kts 30°
2026-04-22 15:03 12.45995 -61.56114 7060 ft 161 kts 24°
2026-04-22 15:03 12.47003 -61.55622 7172 ft 161 kts 25°
2026-04-22 15:03 12.48010 -61.55122 7292 ft 161 kts 24°
2026-04-22 15:04 12.49008 -61.54631 7413 ft 161 kts 24°
2026-04-22 15:04 12.50023 -61.54132 7531 ft 162 kts 24°
2026-04-22 15:04 12.51040 -61.53632 7653 ft 162 kts 24°
2026-04-22 15:04 12.52057 -61.53132 7771 ft 163 kts 24°
2026-04-22 15:05 12.53078 -61.52631 7893 ft 163 kts 24°
2026-04-22 15:05 12.54097 -61.52130 8011 ft 163 kts 24°
2026-04-22 15:05 12.55118 -61.51628 8135 ft 163 kts 24°
2026-04-22 15:05 12.56140 -61.51125 8253 ft 163 kts 24°
2026-04-22 15:06 12.57177 -61.50657 8380 ft 163 kts 17°
2026-04-22 15:06 12.58254 -61.50280 8501 ft 165 kts 17°
2026-04-22 15:06 12.59340 -61.49892 8624 ft 165 kts 17°
2026-04-22 15:06 12.60413 -61.49508 8747 ft 166 kts 17°
2026-04-22 15:07 12.61502 -61.49119 8873 ft 166 kts 17°
2026-04-22 15:07 12.62597 -61.48729 8995 ft 167 kts 17°
2026-04-22 15:07 12.63716 -61.48330 9012 ft 173 kts 17°
2026-04-22 15:07 12.64866 -61.47919 9017 ft 175 kts 17°
2026-04-22 15:08 12.66001 -61.47512 9018 ft 172 kts 17°
2026-04-22 15:08 12.67121 -61.47112 9017 ft 169 kts 17°
2026-04-22 15:08 12.68225 -61.46718 9016 ft 167 kts 17°
2026-04-22 15:08 12.69315 -61.46329 9017 ft 165 kts 17°
2026-04-22 15:09 12.70395 -61.45944 9013 ft 164 kts 17°
2026-04-22 15:09 12.71471 -61.45559 9013 ft 163 kts 17°
2026-04-22 15:09 12.72545 -61.45176 9012 ft 163 kts 17°
2026-04-22 15:09 12.73614 -61.44794 9013 ft 163 kts 17°
2026-04-22 15:10 12.74682 -61.44413 9016 ft 163 kts 17°
2026-04-22 15:10 12.75750 -61.44032 9014 ft 162 kts 17°
2026-04-22 15:10 12.76818 -61.43650 9012 ft 162 kts 17°
2026-04-22 15:10 12.77882 -61.43271 9014 ft 162 kts 17°
2026-04-22 15:11 12.78932 -61.42895 9016 ft 162 kts 17°
2026-04-22 15:11 12.79993 -61.42516 9017 ft 161 kts 17°
2026-04-22 15:11 12.81053 -61.42138 9016 ft 161 kts 17°
2026-04-22 15:11 12.82113 -61.41759 9015 ft 161 kts 17°
2026-04-22 15:12 12.83173 -61.41380 9017 ft 161 kts 17°
2026-04-22 15:12 12.84233 -61.41001 9015 ft 161 kts 17°
2026-04-22 15:12 12.85296 -61.40621 9017 ft 162 kts 17°
2026-04-22 15:12 12.86360 -61.40241 9020 ft 162 kts 17°
2026-04-22 15:13 12.87425 -61.39860 9021 ft 162 kts 17°
2026-04-22 15:13 12.88488 -61.39480 9024 ft 162 kts 17°
2026-04-22 15:13 12.89553 -61.39099 9021 ft 162 kts 17°
2026-04-22 15:13 12.90620 -61.38718 9023 ft 162 kts 17°
2026-04-22 15:14 12.91674 -61.38341 9021 ft 162 kts 17°
2026-04-22 15:14 12.92737 -61.37961 9019 ft 162 kts 17°
2026-04-22 15:14 12.93801 -61.37581 9021 ft 162 kts 17°
2026-04-22 15:14 12.94865 -61.37200 9020 ft 161 kts 17°
2026-04-22 15:15 12.95925 -61.36821 9019 ft 161 kts 17°
2026-04-22 15:15 12.96983 -61.36442 9020 ft 161 kts 17°
2026-04-22 15:15 12.98041 -61.36063 9019 ft 161 kts 17°
2026-04-22 15:15 12.99099 -61.35685 9022 ft 161 kts 17°
2026-04-22 15:16 13.00161 -61.35305 9020 ft 162 kts 17°
2026-04-22 15:16 13.01226 -61.34924 9021 ft 162 kts 17°
2026-04-22 15:16 13.02288 -61.34544 9019 ft 162 kts 17°
2026-04-22 15:16 13.03352 -61.34163 9020 ft 162 kts 17°
2026-04-22 15:17 13.04417 -61.33782 9017 ft 162 kts 17°
2026-04-22 15:17 13.05481 -61.33401 9019 ft 162 kts 17°
2026-04-22 15:17 13.06544 -61.33020 9019 ft 162 kts 17°
2026-04-22 15:17 13.07607 -61.32639 9018 ft 161 kts 17°
2026-04-22 15:18 13.08670 -61.32259 9018 ft 161 kts 17°
2026-04-22 15:18 13.09717 -61.31884 9017 ft 162 kts 17°
2026-04-22 15:18 13.10781 -61.31503 9019 ft 162 kts 17°
2026-04-22 15:18 13.11845 -61.31121 9017 ft 162 kts 17°
2026-04-22 15:19 13.12912 -61.30739 9019 ft 162 kts 17°
2026-04-22 15:19 13.13975 -61.30359 9015 ft 162 kts 17°
2026-04-22 15:19 13.15041 -61.29977 9019 ft 162 kts 17°
2026-04-22 15:19 13.16108 -61.29594 9020 ft 162 kts 17°
2026-04-22 15:20 13.17159 -61.29218 9018 ft 162 kts 17°
2026-04-22 15:20 13.18221 -61.28837 9018 ft 162 kts 17°
2026-04-22 15:20 13.19284 -61.28456 9019 ft 162 kts 17°
2026-04-22 15:20 13.20348 -61.28075 9018 ft 162 kts 17°
2026-04-22 15:21 13.21414 -61.27692 9022 ft 162 kts 17°
2026-04-22 15:21 13.22480 -61.27311 9022 ft 163 kts 17°
2026-04-22 15:21 13.23556 -61.26924 9024 ft 164 kts 17°
2026-04-22 15:21 13.24641 -61.26535 9027 ft 165 kts 17°
2026-04-22 15:22 13.25729 -61.26145 9023 ft 165 kts 17°
2026-04-22 15:22 13.26813 -61.25756 9026 ft 165 kts 17°
2026-04-22 15:22 13.27900 -61.25366 9025 ft 165 kts 17°
2026-04-22 15:22 13.28987 -61.24976 9021 ft 166 kts 17°
2026-04-22 15:23 13.30072 -61.24587 9020 ft 164 kts 17°
2026-04-22 15:23 13.31149 -61.24200 9020 ft 163 kts 17°
2026-04-22 15:23 13.32221 -61.23816 9019 ft 163 kts 17°
2026-04-22 15:23 13.33291 -61.23432 9017 ft 163 kts 17°
2026-04-22 15:24 13.34358 -61.23049 9015 ft 162 kts 17°
2026-04-22 15:24 13.35410 -61.22671 9015 ft 162 kts 17°
2026-04-22 15:24 13.36472 -61.22290 9015 ft 162 kts 17°
2026-04-22 15:24 13.37536 -61.21908 9015 ft 162 kts 17°
2026-04-22 15:25 13.38601 -61.21526 9013 ft 162 kts 17°
2026-04-22 15:25 13.39666 -61.21144 9011 ft 162 kts 17°
2026-04-22 15:25 13.40730 -61.20761 9011 ft 162 kts 17°
2026-04-22 15:25 13.41804 -61.20430 9011 ft 161 kts
2026-04-22 15:26 13.42917 -61.20381 9010 ft 160 kts 359°
2026-04-22 15:26 13.44030 -61.20340 9010 ft 160 kts 359°
2026-04-22 15:26 13.45145 -61.20295 9010 ft 160 kts 359°
2026-04-22 15:26 13.46259 -61.20250 9010 ft 160 kts 359°
2026-04-22 15:27 13.47373 -61.20206 9008 ft 160 kts 360°
2026-04-22 15:27 13.48490 -61.20161 9006 ft 160 kts 359°
2026-04-22 15:27 13.49591 -61.20118 9009 ft 161 kts 359°
2026-04-22 15:27 13.50709 -61.20073 9008 ft 161 kts 360°
2026-04-22 15:28 13.51830 -61.20028 9008 ft 161 kts 359°
2026-04-22 15:28 13.52948 -61.19984 9011 ft 161 kts 359°
2026-04-22 15:28 13.54067 -61.19939 9017 ft 161 kts 359°
2026-04-22 15:28 13.55189 -61.19894 9014 ft 161 kts 359°
2026-04-22 15:29 13.56309 -61.19850 9015 ft 161 kts 359°
2026-04-22 15:29 13.57431 -61.19805 9017 ft 161 kts 359°
2026-04-22 15:29 13.58550 -61.19760 9016 ft 161 kts 360°
2026-04-22 15:30 13.60405 -61.19686 9017 ft 160 kts 359°
2026-04-22 15:30 13.61896 -61.19626 9015 ft 160 kts 359°
2026-04-22 15:30 13.63012 -61.19582 9014 ft 160 kts 360°
2026-04-22 15:30 13.64114 -61.19538 9018 ft 160 kts 359°
2026-04-22 15:31 13.65229 -61.19493 9018 ft 160 kts 359°
2026-04-22 15:31 13.66347 -61.19449 9021 ft 161 kts 360°
2026-04-22 15:31 13.67464 -61.19404 9022 ft 161 kts 359°
2026-04-22 15:31 13.68584 -61.19359 9021 ft 161 kts 359°
2026-04-22 15:32 13.69701 -61.19315 9023 ft 161 kts 360°
2026-04-22 15:32 13.70822 -61.19270 9023 ft 161 kts 359°
2026-04-22 15:32 13.71941 -61.19225 9020 ft 161 kts 359°
2026-04-22 15:32 13.73062 -61.19180 9022 ft 161 kts 359°
2026-04-22 15:33 13.74184 -61.19136 9022 ft 161 kts 359°
2026-04-22 15:33 13.75306 -61.19091 9023 ft 161 kts 359°
2026-04-22 15:33 13.76426 -61.19046 9022 ft 161 kts 359°
2026-04-22 15:33 13.77545 -61.19001 9020 ft 161 kts 359°
2026-04-22 15:34 13.78663 -61.18957 9021 ft 161 kts 359°
2026-04-22 15:34 13.79782 -61.18912 9024 ft 161 kts 359°
2026-04-22 15:34 13.80901 -61.18867 9023 ft 161 kts 359°
2026-04-22 15:34 13.82021 -61.18822 9024 ft 161 kts 359°
2026-04-22 15:35 13.82762 -61.18793 9023 ft 161 kts 360°
2026-04-22 15:35 13.84259 -61.18733 9020 ft 161 kts 359°
2026-04-22 15:35 13.85378 -61.18688 9022 ft 161 kts 359°
2026-04-22 15:35 13.86501 -61.18643 9024 ft 161 kts 359°
2026-04-22 15:36 13.87620 -61.18598 9021 ft 161 kts 359°
2026-04-22 15:36 13.88725 -61.18554 9024 ft 161 kts 360°
2026-04-22 15:36 13.89841 -61.18509 9024 ft 161 kts 360°
2026-04-22 15:36 13.90959 -61.18465 9024 ft 161 kts 359°
2026-04-22 15:37 13.92076 -61.18420 9026 ft 161 kts 359°
2026-04-22 15:37 13.93197 -61.18375 9028 ft 161 kts 360°
2026-04-22 15:37 13.94313 -61.18330 9027 ft 161 kts 360°
2026-04-22 15:37 13.95430 -61.18286 9027 ft 160 kts 359°
2026-04-22 15:38 13.96547 -61.18241 9027 ft 161 kts 359°
2026-04-22 15:38 13.98786 -61.18151 9029 ft 161 kts 359°
2026-04-22 15:38 13.99906 -61.18106 9028 ft 161 kts 360°
2026-04-22 15:39 14.01026 -61.18061 9030 ft 161 kts 359°
2026-04-22 15:39 14.02149 -61.18016 9030 ft 161 kts 359°
2026-04-22 15:39 14.03273 -61.17971 9030 ft 161 kts 359°
2026-04-22 15:39 14.04395 -61.17926 9031 ft 161 kts 360°
2026-04-22 15:40 14.05517 -61.17881 9029 ft 161 kts 360°
2026-04-22 15:40 14.06637 -61.17836 9029 ft 161 kts 359°
2026-04-22 15:40 14.07740 -61.17792 9030 ft 161 kts 360°
2026-04-22 15:40 14.08858 -61.17748 9030 ft 160 kts 359°
2026-04-22 15:41 14.09977 -61.17703 9030 ft 160 kts 360°
2026-04-22 15:41 14.11094 -61.17658 9031 ft 160 kts 359°
2026-04-22 15:41 14.12207 -61.17613 9029 ft 160 kts 359°
2026-04-22 15:41 14.13323 -61.17569 9030 ft 160 kts 359°
2026-04-22 15:42 14.14439 -61.17529 9028 ft 160 kts 356°
2026-04-22 15:42 14.15160 -61.17648 9029 ft 158 kts 340°
2026-04-22 15:42 14.16211 -61.17987 9025 ft 158 kts 340°
2026-04-22 15:42 14.17621 -61.18428 9026 ft 159 kts 340°
2026-04-22 15:43 14.18321 -61.18647 9027 ft 159 kts 340°
2026-04-22 15:43 14.19378 -61.18977 9023 ft 159 kts 340°
2026-04-22 15:43 14.20437 -61.19308 9024 ft 159 kts 340°
2026-04-22 15:43 14.21497 -61.19640 9025 ft 159 kts 340°
2026-04-22 15:44 14.22556 -61.19972 9024 ft 159 kts 340°
2026-04-22 15:44 14.23616 -61.20303 9022 ft 159 kts 340°
2026-04-22 15:44 14.24674 -61.20634 9022 ft 159 kts 340°
2026-04-22 15:44 14.25730 -61.20965 9024 ft 158 kts 340°
2026-04-22 15:45 14.26783 -61.21295 9022 ft 158 kts 340°
2026-04-22 15:45 14.27835 -61.21625 9023 ft 158 kts 340°
2026-04-22 15:45 14.28887 -61.21954 9023 ft 158 kts 340°
2026-04-22 15:45 14.29937 -61.22283 9022 ft 158 kts 340°
2026-04-22 15:46 14.30988 -61.22612 9020 ft 158 kts 340°
2026-04-22 15:46 14.32038 -61.22941 9021 ft 158 kts 340°
2026-04-22 15:46 14.33087 -61.23270 9021 ft 158 kts 340°
2026-04-22 15:46 14.34137 -61.23599 9024 ft 158 kts 340°
2026-04-22 15:47 14.35185 -61.23927 9023 ft 158 kts 340°
2026-04-22 15:47 14.36221 -61.24252 9024 ft 158 kts 340°
2026-04-22 15:47 14.37272 -61.24581 9023 ft 158 kts 340°
2026-04-22 15:47 14.38322 -61.24910 9023 ft 158 kts 340°
2026-04-22 15:48 14.39374 -61.25240 9022 ft 158 kts 340°
2026-04-22 15:48 14.40425 -61.25570 9021 ft 158 kts 340°
2026-04-22 15:48 14.41475 -61.25899 9022 ft 158 kts 340°
2026-04-22 15:48 14.42528 -61.26229 9021 ft 158 kts 340°
2026-04-22 15:49 14.43581 -61.26559 9022 ft 158 kts 340°
2026-04-22 15:49 14.44631 -61.26889 9020 ft 157 kts 340°
2026-04-22 15:49 14.45678 -61.27217 9021 ft 157 kts 340°
2026-04-22 15:49 14.46727 -61.27546 9020 ft 158 kts 340°
2026-04-22 15:50 14.47775 -61.27875 9021 ft 158 kts 340°
2026-04-22 15:50 14.48825 -61.28205 9021 ft 158 kts 341°
2026-04-22 15:50 14.49876 -61.28534 9020 ft 158 kts 340°
2026-04-22 15:50 14.50912 -61.28859 9020 ft 158 kts 340°
2026-04-22 15:51 14.51961 -61.29189 9021 ft 158 kts 340°
2026-04-22 15:51 14.53010 -61.29518 9020 ft 158 kts 340°
2026-04-22 15:51 14.54060 -61.29848 9017 ft 158 kts 340°
2026-04-22 15:51 14.55112 -61.30178 9020 ft 158 kts 340°
2026-04-22 15:52 14.56164 -61.30509 9021 ft 158 kts 340°
2026-04-22 15:52 14.57215 -61.30839 9020 ft 158 kts 340°
2026-04-22 15:52 14.58268 -61.31170 9023 ft 158 kts 340°
2026-04-22 15:52 14.59319 -61.31500 9022 ft 158 kts 340°
2026-04-22 15:53 14.60370 -61.31830 9022 ft 158 kts 340°
2026-04-22 15:53 14.61423 -61.32160 9025 ft 158 kts 341°
2026-04-22 15:53 14.62474 -61.32491 9025 ft 158 kts 341°
2026-04-22 15:53 14.63512 -61.32817 9023 ft 158 kts 341°
2026-04-22 15:54 14.64565 -61.33148 9025 ft 158 kts 341°
2026-04-22 15:54 14.65615 -61.33478 9025 ft 158 kts 341°
2026-04-22 15:54 14.66666 -61.33808 9027 ft 158 kts 341°
2026-04-22 15:54 14.67716 -61.34138 9024 ft 158 kts 341°
2026-04-22 15:55 14.68766 -61.34469 9026 ft 157 kts 341°
2026-04-22 15:55 14.69813 -61.34798 9025 ft 157 kts 341°
2026-04-22 15:55 14.70861 -61.35127 9025 ft 157 kts 340°
2026-04-22 15:55 14.71908 -61.35457 9030 ft 157 kts 341°
2026-04-22 15:56 14.72956 -61.35786 9030 ft 158 kts 340°
2026-04-22 15:56 14.74006 -61.36117 9029 ft 158 kts 341°
2026-04-22 15:56 14.75057 -61.36447 9031 ft 158 kts 340°
2026-04-22 15:56 14.76108 -61.36778 9027 ft 158 kts 341°
2026-04-22 15:57 14.77160 -61.37109 9026 ft 158 kts 340°
2026-04-22 15:57 14.78198 -61.37436 9030 ft 158 kts 340°
2026-04-22 15:57 14.79250 -61.37767 9028 ft 158 kts 340°
2026-04-22 15:57 14.80301 -61.38097 9028 ft 158 kts 340°
2026-04-22 15:58 14.81355 -61.38429 9026 ft 158 kts 340°
2026-04-22 15:58 14.82405 -61.38760 9028 ft 158 kts 340°
2026-04-22 15:58 14.83455 -61.39090 9028 ft 158 kts 341°
2026-04-22 15:58 14.84504 -61.39420 9029 ft 158 kts 341°
2026-04-22 15:59 14.85554 -61.39751 9028 ft 158 kts 341°
2026-04-22 15:59 14.86607 -61.40083 9025 ft 158 kts 340°
2026-04-22 15:59 14.87655 -61.40413 9027 ft 157 kts 341°
2026-04-22 15:59 14.88693 -61.40740 9031 ft 157 kts 341°
2026-04-22 16:00 14.89740 -61.41070 9032 ft 157 kts 341°
2026-04-22 16:00 14.90787 -61.41400 9027 ft 157 kts 341°
2026-04-22 16:00 14.91833 -61.41729 9031 ft 157 kts 341°
2026-04-22 16:00 14.92880 -61.42059 9029 ft 157 kts 340°
2026-04-22 16:01 14.93929 -61.42390 9034 ft 158 kts 341°
2026-04-22 16:01 14.94980 -61.42721 9032 ft 158 kts 341°
2026-04-22 16:01 14.96029 -61.43052 9027 ft 158 kts 341°
2026-04-22 16:01 14.97082 -61.43384 9026 ft 158 kts 341°
2026-04-22 16:02 14.98120 -61.43711 9026 ft 158 kts 341°
2026-04-22 16:02 14.99169 -61.44042 9025 ft 157 kts 341°
2026-04-22 16:02 15.00216 -61.44372 9028 ft 157 kts 341°
2026-04-22 16:02 15.01261 -61.44701 9026 ft 157 kts 341°
2026-04-22 16:03 15.02308 -61.45032 9029 ft 157 kts 341°
2026-04-22 16:03 15.03352 -61.45361 9027 ft 157 kts 341°
2026-04-22 16:03 15.04397 -61.45691 9029 ft 157 kts 341°
2026-04-22 16:03 15.05441 -61.46021 9028 ft 157 kts 342°
2026-04-22 16:04 15.06472 -61.46346 9026 ft 157 kts 341°
2026-04-22 16:04 15.07515 -61.46675 9022 ft 157 kts 341°
2026-04-22 16:04 15.08560 -61.47005 9022 ft 157 kts 341°
2026-04-22 16:04 15.09603 -61.47334 9024 ft 157 kts 342°
2026-04-22 16:05 15.10648 -61.47664 9024 ft 157 kts 341°
2026-04-22 16:05 15.11690 -61.47993 9022 ft 157 kts 341°
2026-04-22 16:05 15.12734 -61.48323 9021 ft 157 kts 342°
2026-04-22 16:05 15.13776 -61.48651 9021 ft 156 kts 342°
2026-04-22 16:06 15.14815 -61.48980 9020 ft 156 kts 342°
2026-04-22 16:06 15.15853 -61.49307 9018 ft 156 kts 341°
2026-04-22 16:06 15.16892 -61.49636 9016 ft 156 kts 342°
2026-04-22 16:06 15.17931 -61.49964 9016 ft 156 kts 342°
2026-04-22 16:07 15.18969 -61.50292 9017 ft 156 kts 342°
2026-04-22 16:07 15.20007 -61.50620 9014 ft 156 kts 342°
2026-04-22 16:07 15.21044 -61.50947 9018 ft 156 kts 342°
2026-04-22 16:07 15.22082 -61.51275 9015 ft 156 kts 342°
2026-04-22 16:08 15.23117 -61.51603 9013 ft 156 kts 342°
2026-04-22 16:08 15.24138 -61.51925 9014 ft 156 kts 342°
2026-04-22 16:08 15.25172 -61.52252 9014 ft 156 kts 342°
2026-04-22 16:08 15.26208 -61.52580 9013 ft 156 kts 342°
2026-04-22 16:09 15.27242 -61.52907 9013 ft 156 kts 342°
2026-04-22 16:09 15.28279 -61.53235 9012 ft 156 kts 342°
2026-04-22 16:09 15.29315 -61.53562 9014 ft 156 kts 342°
2026-04-22 16:09 15.30351 -61.53890 9013 ft 156 kts 342°
2026-04-22 16:10 15.31388 -61.54218 9014 ft 155 kts 342°
2026-04-22 16:10 15.32422 -61.54546 9012 ft 155 kts 342°
2026-04-22 16:10 15.33109 -61.54763 9011 ft 155 kts 342°
2026-04-22 16:10 15.34492 -61.55200 9014 ft 156 kts 342°
2026-04-22 16:11 15.35528 -61.55528 9013 ft 156 kts 342°
2026-04-22 16:11 15.36551 -61.55852 9013 ft 156 kts 342°
2026-04-22 16:11 15.37587 -61.56180 9013 ft 156 kts 342°
2026-04-22 16:11 15.38625 -61.56509 9015 ft 156 kts 342°
2026-04-22 16:12 15.39662 -61.56837 9017 ft 156 kts 342°
2026-04-22 16:12 15.40699 -61.57165 9016 ft 156 kts 342°
2026-04-22 16:12 15.41738 -61.57494 9016 ft 156 kts 342°
2026-04-22 16:12 15.42774 -61.57822 9018 ft 156 kts 342°
2026-04-22 16:13 15.43813 -61.58151 9017 ft 156 kts 342°
2026-04-22 16:13 15.44850 -61.58480 9018 ft 156 kts 342°
2026-04-22 16:13 15.45886 -61.58808 9018 ft 156 kts 342°
2026-04-22 16:13 15.46921 -61.59136 9021 ft 156 kts 342°
2026-04-22 16:14 15.47943 -61.59460 9020 ft 155 kts 342°
2026-04-22 16:14 15.48978 -61.59788 9019 ft 155 kts 342°
2026-04-22 16:14 15.50012 -61.60115 9021 ft 155 kts 342°
2026-04-22 16:14 15.51048 -61.60444 9022 ft 155 kts 341°
2026-04-22 16:15 15.52081 -61.60771 9023 ft 155 kts 342°
2026-04-22 16:15 15.53117 -61.61100 9023 ft 155 kts 342°
2026-04-22 16:15 15.54152 -61.61428 9024 ft 155 kts 342°
2026-04-22 16:15 15.55187 -61.61756 9026 ft 155 kts 342°
2026-04-22 16:16 15.56222 -61.62084 9030 ft 155 kts 342°
2026-04-22 16:16 15.57258 -61.62413 9032 ft 156 kts 342°
2026-04-22 16:16 15.58294 -61.62742 9032 ft 156 kts 342°
2026-04-22 16:16 15.59329 -61.63070 9028 ft 156 kts 342°
2026-04-22 16:17 15.60365 -61.63398 9032 ft 156 kts 342°
2026-04-22 16:17 15.61401 -61.63727 9029 ft 156 kts 342°
2026-04-22 16:17 15.62436 -61.64056 9030 ft 156 kts 342°
2026-04-22 16:17 15.63474 -61.64385 9031 ft 156 kts 342°
2026-04-22 16:18 15.64494 -61.64709 9032 ft 156 kts 342°
2026-04-22 16:18 15.65530 -61.65038 9030 ft 156 kts 342°
2026-04-22 16:18 15.66567 -61.65367 9030 ft 156 kts 342°
2026-04-22 16:18 15.67604 -61.65696 9029 ft 156 kts 342°
2026-04-22 16:19 15.68638 -61.66025 9030 ft 156 kts 342°
2026-04-22 16:19 15.69674 -61.66354 9030 ft 156 kts 342°
2026-04-22 16:19 15.70713 -61.66684 9030 ft 156 kts 342°
2026-04-22 16:19 15.71748 -61.67012 9032 ft 156 kts 342°
2026-04-22 16:20 15.72785 -61.67342 9030 ft 156 kts 342°
2026-04-22 16:20 15.73808 -61.67667 9028 ft 156 kts 342°
2026-04-22 16:20 15.74844 -61.67996 9030 ft 156 kts 342°
2026-04-22 16:20 15.75879 -61.68325 9033 ft 156 kts 342°
2026-04-22 16:21 15.76917 -61.68655 9030 ft 156 kts 342°
2026-04-22 16:21 15.77954 -61.68984 9030 ft 156 kts 342°
2026-04-22 16:21 15.78991 -61.69314 9030 ft 156 kts 342°
2026-04-22 16:21 15.80027 -61.69643 9030 ft 156 kts 342°
2026-04-22 16:22 15.82100 -61.70303 9029 ft 156 kts 342°
2026-04-22 16:22 15.83137 -61.70632 9026 ft 156 kts 342°
2026-04-22 16:22 15.84173 -61.70962 9027 ft 156 kts 342°
2026-04-22 16:23 15.86244 -61.71620 9027 ft 156 kts 342°
2026-04-22 16:23 15.87281 -61.71950 9029 ft 156 kts 342°
2026-04-22 16:23 15.88304 -61.72276 9026 ft 156 kts 342°
2026-04-22 16:24 15.89340 -61.72606 9028 ft 156 kts 342°
2026-04-22 16:24 15.91409 -61.73264 9027 ft 156 kts 342°
2026-04-22 16:24 15.92446 -61.73594 9026 ft 156 kts 342°
2026-04-22 16:25 15.93481 -61.73924 9029 ft 156 kts 342°
2026-04-22 16:25 15.95552 -61.74583 9029 ft 155 kts 342°
2026-04-22 16:25 15.96585 -61.74912 9029 ft 155 kts 342°
2026-04-22 16:26 15.97620 -61.75242 9031 ft 155 kts 342°
2026-04-22 16:26 15.98653 -61.75571 9028 ft 155 kts 342°
2026-04-22 16:26 15.99687 -61.75900 9027 ft 155 kts 342°
2026-04-22 16:26 16.00708 -61.76225 9028 ft 155 kts 342°
2026-04-22 16:27 16.01742 -61.76555 9020 ft 155 kts 342°
2026-04-22 16:27 16.02777 -61.76885 9024 ft 155 kts 342°
2026-04-22 16:27 16.03811 -61.77214 9023 ft 155 kts 342°
2026-04-22 16:27 16.04845 -61.77544 9022 ft 155 kts 342°
2026-04-22 16:28 16.05877 -61.77873 9020 ft 155 kts 342°
2026-04-22 16:28 16.06913 -61.78203 9018 ft 155 kts 342°
2026-04-22 16:28 16.07947 -61.78533 9017 ft 156 kts 342°
2026-04-22 16:28 16.08984 -61.78863 9015 ft 155 kts 342°
2026-04-22 16:29 16.10017 -61.79193 9015 ft 155 kts 342°
2026-04-22 16:29 16.11052 -61.79523 9015 ft 155 kts 342°
2026-04-22 16:29 16.12086 -61.79853 9012 ft 155 kts 342°
2026-04-22 16:29 16.13120 -61.80183 9010 ft 155 kts 342°
2026-04-22 16:30 16.13805 -61.80401 9012 ft 155 kts 342°
2026-04-22 16:30 16.15188 -61.80842 9012 ft 155 kts 342°
2026-04-22 16:30 16.16221 -61.81172 9015 ft 155 kts 343°
2026-04-22 16:30 16.17255 -61.81502 9013 ft 155 kts 342°
2026-04-22 16:31 16.17940 -61.81721 9015 ft 155 kts 343°
2026-04-22 16:31 16.18976 -61.82051 9015 ft 155 kts 343°
2026-04-22 16:31 16.20011 -61.82382 9013 ft 156 kts 343°
2026-04-22 16:31 16.21045 -61.82712 9015 ft 156 kts 343°
2026-04-22 16:32 16.22080 -61.83042 9015 ft 156 kts 343°
2026-04-22 16:32 16.23117 -61.83374 9013 ft 156 kts 343°
2026-04-22 16:32 16.24155 -61.83705 9017 ft 156 kts 343°
2026-04-22 16:32 16.25177 -61.84031 9016 ft 156 kts 343°
2026-04-22 16:33 16.26213 -61.84363 9014 ft 156 kts 343°
2026-04-22 16:33 16.27247 -61.84693 9015 ft 155 kts 343°
2026-04-22 16:33 16.28281 -61.85023 9016 ft 155 kts 343°
2026-04-22 16:33 16.29317 -61.85354 9011 ft 156 kts 343°
2026-04-22 16:34 16.30352 -61.85685 9014 ft 155 kts 343°
2026-04-22 16:34 16.31387 -61.86016 9013 ft 155 kts 343°
2026-04-22 16:34 16.32419 -61.86346 9013 ft 155 kts 343°
2026-04-22 16:34 16.33454 -61.86677 9010 ft 155 kts 343°
2026-04-22 16:35 16.34487 -61.87007 9016 ft 155 kts 343°
2026-04-22 16:35 16.35521 -61.87337 9015 ft 155 kts 343°
2026-04-22 16:35 16.36553 -61.87668 9017 ft 155 kts 343°
2026-04-22 16:35 16.37586 -61.87998 9015 ft 155 kts 343°
2026-04-22 16:36 16.38619 -61.88328 9017 ft 155 kts 343°
2026-04-22 16:36 16.39638 -61.88654 9016 ft 155 kts 343°
2026-04-22 16:36 16.40670 -61.88985 9019 ft 155 kts 343°
2026-04-22 16:36 16.41704 -61.89315 9019 ft 155 kts 343°
2026-04-22 16:37 16.42735 -61.89646 9021 ft 155 kts 343°
2026-04-22 16:37 16.43769 -61.89977 9019 ft 155 kts 343°
2026-04-22 16:37 16.44803 -61.90307 9022 ft 155 kts 343°
2026-04-22 16:37 16.45835 -61.90638 9022 ft 155 kts 343°
2026-04-22 16:38 16.46869 -61.90969 9020 ft 155 kts 343°
2026-04-22 16:38 16.47901 -61.91299 9020 ft 155 kts 343°
2026-04-22 16:38 16.48933 -61.91630 9019 ft 155 kts 343°
2026-04-22 16:38 16.49963 -61.91960 9019 ft 155 kts 343°
2026-04-22 16:39 16.50994 -61.92290 9019 ft 155 kts 343°
2026-04-22 16:39 16.52023 -61.92620 9019 ft 155 kts 343°
2026-04-22 16:39 16.53054 -61.92950 9021 ft 155 kts 343°
2026-04-22 16:39 16.54086 -61.93281 9018 ft 155 kts 343°
2026-04-22 16:40 16.55103 -61.93606 9020 ft 155 kts 343°
2026-04-22 16:40 16.56135 -61.93937 9019 ft 155 kts 343°
2026-04-22 16:40 16.58195 -61.94597 9018 ft 155 kts 343°
2026-04-22 16:41 16.59223 -61.94927 9020 ft 155 kts 343°
2026-04-22 16:41 16.60254 -61.95257 9018 ft 155 kts 343°
2026-04-22 16:41 16.61283 -61.95587 9021 ft 155 kts 343°
2026-04-22 16:41 16.62312 -61.95925 9020 ft 155 kts 339°
2026-04-22 16:42 16.63192 -61.96557 9026 ft 155 kts 315°
2026-04-22 16:42 16.63956 -61.97353 9024 ft 155 kts 315°
2026-04-22 16:42 16.64726 -61.98142 9025 ft 155 kts 315°
2026-04-22 16:42 16.65498 -61.98932 9023 ft 155 kts 316°
2026-04-22 16:43 16.66269 -61.99723 9027 ft 155 kts 316°
2026-04-22 16:43 16.67039 -62.00512 9027 ft 155 kts 315°
2026-04-22 16:43 16.67809 -62.01302 9027 ft 155 kts 315°
2026-04-22 16:43 16.68580 -62.02092 9027 ft 155 kts 315°
2026-04-22 16:44 16.69351 -62.02882 9028 ft 155 kts 316°
2026-04-22 16:44 16.70122 -62.03673 9027 ft 155 kts 316°
2026-04-22 16:44 16.70894 -62.04464 9030 ft 155 kts 316°
2026-04-22 16:44 16.71663 -62.05254 9029 ft 155 kts 316°
2026-04-22 16:45 16.72434 -62.06044 9030 ft 155 kts 316°
2026-04-22 16:45 16.73203 -62.06834 9028 ft 155 kts 316°
2026-04-22 16:45 16.73974 -62.07625 9028 ft 155 kts 316°
2026-04-22 16:45 16.74745 -62.08416 9027 ft 155 kts 316°
2026-04-22 16:46 16.75515 -62.09206 9030 ft 155 kts 316°
2026-04-22 16:46 16.76276 -62.09987 9030 ft 155 kts 316°
2026-04-22 16:46 16.77047 -62.10779 9031 ft 155 kts 316°
2026-04-22 16:46 16.77818 -62.11570 9030 ft 155 kts 316°
2026-04-22 16:47 16.78599 -62.12372 9031 ft 155 kts 316°
2026-04-22 16:47 16.79369 -62.13163 9032 ft 155 kts 316°
2026-04-22 16:47 16.80139 -62.13954 9032 ft 155 kts 316°
2026-04-22 16:47 16.80910 -62.14745 9031 ft 155 kts 316°
2026-04-22 16:48 16.81680 -62.15537 9031 ft 155 kts 316°
2026-04-22 16:48 16.82441 -62.16318 9030 ft 155 kts 316°
2026-04-22 16:48 16.83211 -62.17110 9031 ft 155 kts 316°
2026-04-22 16:48 16.83981 -62.17901 9029 ft 155 kts 316°
2026-04-22 16:49 16.84750 -62.18691 9030 ft 155 kts 316°
2026-04-22 16:49 16.85520 -62.19483 9031 ft 155 kts 316°
2026-04-22 16:49 16.86289 -62.20274 9030 ft 155 kts 316°
2026-04-22 16:49 16.87059 -62.21065 9030 ft 155 kts 316°
2026-04-22 16:50 16.87829 -62.21857 9029 ft 155 kts 316°
2026-04-22 16:50 16.88599 -62.22649 9029 ft 155 kts 316°
2026-04-22 16:50 16.89368 -62.23440 9030 ft 155 kts 316°
2026-04-22 16:50 16.90141 -62.24235 9029 ft 156 kts 316°
2026-04-22 16:51 16.90912 -62.25029 9028 ft 156 kts 316°
2026-04-22 16:51 16.91684 -62.25823 9032 ft 156 kts 316°
2026-04-22 16:51 16.92458 -62.26619 9028 ft 156 kts 316°
2026-04-22 16:51 16.93228 -62.27412 9025 ft 156 kts 316°
2026-04-22 16:52 16.93999 -62.28205 9027 ft 155 kts 316°
2026-04-22 16:52 16.94759 -62.28987 9030 ft 156 kts 316°
2026-04-22 16:52 16.95529 -62.29780 9029 ft 156 kts 316°
2026-04-22 16:52 16.96301 -62.30575 9029 ft 155 kts 316°
2026-04-22 16:53 16.97071 -62.31369 9028 ft 155 kts 316°
2026-04-22 16:53 16.97839 -62.32160 9029 ft 155 kts 316°
2026-04-22 16:53 16.98611 -62.32954 9029 ft 156 kts 316°
2026-04-22 16:53 16.99382 -62.33748 9030 ft 155 kts 316°
2026-04-22 16:54 17.00151 -62.34541 9029 ft 155 kts 316°
2026-04-22 16:54 17.00921 -62.35335 9028 ft 156 kts 316°
2026-04-22 16:54 17.01693 -62.36130 9030 ft 156 kts 316°
2026-04-22 16:54 17.02466 -62.36927 9030 ft 156 kts 316°
2026-04-22 16:55 17.03239 -62.37723 9029 ft 156 kts 316°
2026-04-22 16:55 17.04010 -62.38518 9030 ft 156 kts 316°
2026-04-22 16:55 17.04781 -62.39313 9029 ft 155 kts 316°
2026-04-22 16:55 17.05551 -62.40107 9028 ft 155 kts 316°
2026-04-22 16:56 17.06320 -62.40900 9028 ft 155 kts 316°
2026-04-22 16:56 17.07078 -62.41682 9028 ft 155 kts 316°
2026-04-22 16:56 17.07847 -62.42475 9029 ft 155 kts 316°
2026-04-22 16:56 17.08616 -62.43269 9031 ft 155 kts 316°
2026-04-22 16:57 17.09385 -62.44062 9030 ft 155 kts 316°
2026-04-22 16:57 17.10152 -62.44854 9028 ft 155 kts 316°
2026-04-22 16:57 17.10922 -62.45648 9028 ft 155 kts 316°
2026-04-22 16:57 17.11692 -62.46444 9030 ft 155 kts 316°
2026-04-22 16:58 17.12202 -62.46970 9028 ft 156 kts 316°
2026-04-22 16:58 17.13232 -62.48033 9028 ft 155 kts 316°
2026-04-22 16:58 17.14002 -62.48828 9028 ft 155 kts 316°
2026-04-22 16:58 17.14772 -62.49624 9030 ft 155 kts 316°
2026-04-22 16:59 17.15531 -62.50408 9026 ft 155 kts 316°
2026-04-22 16:59 17.16301 -62.51203 9023 ft 155 kts 316°
2026-04-22 16:59 17.17069 -62.51996 9027 ft 155 kts 316°
2026-04-22 16:59 17.17838 -62.52791 9026 ft 155 kts 316°
2026-04-22 17:00 17.18607 -62.53585 9030 ft 155 kts 316°
2026-04-22 17:00 17.20144 -62.55175 9030 ft 155 kts 316°
2026-04-22 17:00 17.20914 -62.55970 9026 ft 155 kts 316°
2026-04-22 17:01 17.21683 -62.56765 9025 ft 155 kts 316°
2026-04-22 17:01 17.22452 -62.57560 9026 ft 155 kts 316°
2026-04-22 17:01 17.23221 -62.58355 9021 ft 156 kts 316°
2026-04-22 17:01 17.23992 -62.59152 9022 ft 156 kts 316°
2026-04-22 17:02 17.24762 -62.59949 9021 ft 156 kts 316°
2026-04-22 17:02 17.25534 -62.60748 9023 ft 156 kts 316°
2026-04-22 17:02 17.26305 -62.61545 9030 ft 156 kts 316°
2026-04-22 17:02 17.27066 -62.62333 9026 ft 156 kts 316°
2026-04-22 17:03 17.27847 -62.63142 9029 ft 156 kts 316°
2026-04-22 17:03 17.28619 -62.63941 9026 ft 156 kts 316°
2026-04-22 17:03 17.29383 -62.64731 9029 ft 156 kts 316°
2026-04-22 17:03 17.30154 -62.65529 9031 ft 156 kts 316°
2026-04-22 17:04 17.30925 -62.66328 9031 ft 156 kts 316°
2026-04-22 17:04 17.31697 -62.67127 9030 ft 156 kts 316°
2026-04-22 17:04 17.32469 -62.67927 9032 ft 156 kts 316°
2026-04-22 17:04 17.33241 -62.68726 9028 ft 156 kts 316°
2026-04-22 17:05 17.34012 -62.69524 9030 ft 156 kts 316°
2026-04-22 17:05 17.34782 -62.70323 9030 ft 156 kts 316°
2026-04-22 17:05 17.35543 -62.71111 9030 ft 156 kts 316°
2026-04-22 17:05 17.36313 -62.71910 9029 ft 156 kts 316°
2026-04-22 17:06 17.37085 -62.72709 9029 ft 156 kts 316°
2026-04-22 17:06 17.37853 -62.73505 9029 ft 155 kts 316°
2026-04-22 17:06 17.38622 -62.74303 9031 ft 155 kts 316°
2026-04-22 17:06 17.39391 -62.75100 9028 ft 155 kts 316°
2026-04-22 17:07 17.40158 -62.75895 9027 ft 155 kts 316°
2026-04-22 17:07 17.40925 -62.76691 9027 ft 155 kts 316°
2026-04-22 17:07 17.41694 -62.77488 9030 ft 155 kts 316°
2026-04-22 17:07 17.42460 -62.78283 9027 ft 155 kts 316°
2026-04-22 17:08 17.43216 -62.79068 9027 ft 155 kts 316°
2026-04-22 17:08 17.43982 -62.79862 9027 ft 155 kts 316°
2026-04-22 17:08 17.44747 -62.80655 9029 ft 155 kts 316°
2026-04-22 17:08 17.45510 -62.81448 9031 ft 155 kts 316°
2026-04-22 17:09 17.46276 -62.82243 9028 ft 155 kts 316°
2026-04-22 17:09 17.47000 -62.82994 9029 ft 155 kts 316°
2026-04-22 17:09 17.47576 -62.83449 9017 ft 154 kts 333°
2026-04-22 17:09 17.48865 -62.84065 9024 ft 154 kts 336°
2026-04-22 17:10 17.49835 -62.84535 9023 ft 154 kts 336°
2026-04-22 17:10 17.50807 -62.85006 9022 ft 154 kts 336°
2026-04-22 17:10 17.51720 -62.85449 9025 ft 154 kts 336°
2026-04-22 17:10 17.52690 -62.85918 9024 ft 154 kts 336°
2026-04-22 17:11 17.53660 -62.86388 9026 ft 154 kts 336°
2026-04-22 17:11 17.54630 -62.86858 9023 ft 154 kts 336°
2026-04-22 17:11 17.55559 -62.87407 9025 ft 154 kts 326°
2026-04-22 17:11 17.56437 -62.88071 8942 ft 159 kts 325°
2026-04-22 17:12 17.57341 -62.88757 8818 ft 159 kts 325°
2026-04-22 17:12 17.58226 -62.89428 8694 ft 155 kts 325°
2026-04-22 17:12 17.59095 -62.90087 8568 ft 153 kts 325°
2026-04-22 17:12 17.59953 -62.90739 8442 ft 152 kts 325°
2026-04-22 17:13 17.60806 -62.91385 8314 ft 151 kts 325°
2026-04-22 17:13 17.61647 -62.92021 8199 ft 151 kts 325°
2026-04-22 17:13 17.62497 -62.92663 8072 ft 150 kts 325°
2026-04-22 17:13 17.63347 -62.93304 7953 ft 151 kts 325°
2026-04-22 17:14 17.64199 -62.93947 7831 ft 151 kts 325°
2026-04-22 17:14 17.65051 -62.94586 7710 ft 149 kts 325°
2026-04-22 17:14 17.65882 -62.95210 7584 ft 145 kts 325°
2026-04-22 17:14 17.66696 -62.95820 7464 ft 142 kts 325°
2026-04-22 17:15 17.67228 -62.96219 7381 ft 141 kts 325°
2026-04-22 17:15 17.68292 -62.97013 7218 ft 140 kts 325°
2026-04-22 17:15 17.68817 -62.97405 7142 ft 139 kts 325°
2026-04-22 17:15 17.69824 -62.98154 6985 ft 139 kts 325°
2026-04-22 17:16 17.70611 -62.98742 6869 ft 139 kts 325°
2026-04-22 17:16 17.71398 -62.99328 6755 ft 139 kts 325°
2026-04-22 17:16 17.72185 -62.99912 6634 ft 139 kts 325°
2026-04-22 17:16 17.72973 -63.00497 6525 ft 139 kts 325°
2026-04-22 17:17 17.73763 -63.01081 6401 ft 139 kts 325°
2026-04-22 17:17 17.74554 -63.01664 6278 ft 139 kts 325°
2026-04-22 17:17 17.75344 -63.02251 6157 ft 139 kts 325°
2026-04-22 17:17 17.76122 -63.02830 6032 ft 139 kts 325°
2026-04-22 17:18 17.76912 -63.03420 5892 ft 140 kts 325°
2026-04-22 17:18 17.77708 -63.04018 5745 ft 141 kts 325°
2026-04-22 17:18 17.78510 -63.04623 5598 ft 143 kts 325°
2026-04-22 17:18 17.79316 -63.05234 5455 ft 143 kts 325°
2026-04-22 17:19 17.80661 -63.06257 5210 ft 144 kts 325°
2026-04-22 17:19 17.82289 -63.07502 4926 ft 145 kts 325°
2026-04-22 17:20 17.83914 -63.08755 4634 ft 146 kts 325°
2026-04-22 17:20 17.85543 -63.10022 4336 ft 146 kts 325°
2026-04-22 17:21 17.86353 -63.10656 4190 ft 145 kts 325°
2026-04-22 17:21 17.87970 -63.11930 3890 ft 145 kts 325°
2026-04-22 17:22 17.89574 -63.13195 3601 ft 144 kts 325°
2026-04-22 17:22 17.90372 -63.13823 3456 ft 143 kts 325°
2026-04-22 17:22 17.91958 -63.15082 3165 ft 142 kts 325°
2026-04-22 17:23 17.92748 -63.15706 3020 ft 142 kts 325°
2026-04-22 17:23 17.94318 -63.16945 2721 ft 140 kts 325°
2026-04-22 17:23 17.95102 -63.17554 2573 ft 140 kts 326°
2026-04-22 17:24 17.95896 -63.18129 2438 ft 138 kts 329°
2026-04-22 17:24 17.96719 -63.18536 2395 ft 126 kts 348°
2026-04-22 17:24 17.97562 -63.18585 2316 ft 124 kts
2026-04-22 17:24 17.98305 -63.18326 2383 ft 106 kts 43°
2026-04-22 17:25 17.98636 -63.17656 2369 ft 107 kts 79°
2026-04-22 17:25 17.98682 -63.16831 2201 ft 120 kts 104°
2026-04-22 17:25 17.98125 -63.16161 2106 ft 124 kts 140°
2026-04-22 17:25 17.97435 -63.15644 2108 ft 120 kts 141°
2026-04-22 17:26 17.96766 -63.15129 2099 ft 119 kts 141°
2026-04-22 17:26 17.96081 -63.14614 2020 ft 123 kts 141°
2026-04-22 17:26 17.95384 -63.14100 2007 ft 120 kts 141°
2026-04-22 17:26 17.94691 -63.13612 2000 ft 120 kts 150°
2026-04-22 17:27 17.93897 -63.13561 1993 ft 122 kts 204°
2026-04-22 17:27 17.93449 -63.14284 1987 ft 123 kts 268°
2026-04-22 17:27 17.93821 -63.15025 1997 ft 116 kts 324°
2026-04-22 17:27 17.94464 -63.15530 1990 ft 114 kts 326°
2026-04-22 17:28 17.95103 -63.16038 2006 ft 118 kts 324°
2026-04-22 17:28 17.95776 -63.16567 2008 ft 123 kts 325°
2026-04-22 17:28 17.96501 -63.17054 2002 ft 124 kts 347°
2026-04-22 17:28 17.97283 -63.16840 1995 ft 121 kts 45°
2026-04-22 17:29 17.97479 -63.16027 1994 ft 121 kts 106°
2026-04-22 17:29 17.96915 -63.15369 1993 ft 124 kts 137°
2026-04-22 17:29 17.96335 -63.14710 2001 ft 123 kts 125°
2026-04-22 17:29 17.95810 -63.14016 2002 ft 123 kts 133°
2026-04-22 17:30 17.94994 -63.13775 1991 ft 131 kts 191°
2026-04-22 17:30 17.94332 -63.14389 1993 ft 133 kts 249°
2026-04-22 17:30 17.94460 -63.15311 1991 ft 132 kts 309°
2026-04-22 17:30 17.95156 -63.15923 2004 ft 131 kts 326°